Flag for Germany Weather past 2 weeks in Springe, Lower Saxony, Germany

43 °F

Quite cool.

Feels Like: 34 °F
Forecast: 42 / 49 °F
Wind: 22 mph from South

Location: Wunstorf Airport

Current Time: Nov 29, 2015 at 1:35:32 AM

Latest Report: Nov 29, 2015 at 12:20 AM

Visibility: 3 mi

Pressure: 29.74 "Hg

Humidity: 76%

Dew point: 36 °F

Location of SpringeLocation

Historic Weather in Springe — Graph


Springe temperature yesterday

Maximum temperature yesterday: 45 °F (at 12:20 PM)
Minimum temperature yesterday: 36 °F (at 2:20 AM)
Average temperature yesterday: 41 °F

Past Weeks' High & Low Weather Summary

High59 °F (Nov 17, 11:20 PM)100% (Nov 15, 3:20 PM)30.21 "Hg (Nov 15, 3:20 PM)
Low32 °F (Nov 22, 4:20 PM)63% (Nov 18, 7:20 PM)29.33 "Hg (Nov 21, 5:20 AM)
Average44 °F85%29.79 "Hg
* Reported Nov 13 11:20 PM — Nov 28 11:20 PM, Springe, Weather by CustomWeather, © 2015

Note: Actual official high and low records may vary slightly from our data, if they occured in-between our weather recording intervals... More about our weather records


Springe weather history for previous 24 hours

Time TempWeatherWind HumidityBarometerVisibility
11:20 PM
Sat, Nov 28
43 °FQuite cool.22 mph76%29.77 "Hg2 mi
10:20 PM43 °FQuite cool.20 mph71%29.80 "Hg2 mi
9:20 PM41 °FQuite cool.16 mph76%29.83 "Hg2 mi
8:20 PM41 °FQuite cool.16 mph76%29.86 "Hg2 mi
7:20 PM41 °FQuite cool.17 mph76%29.86 "Hg2 mi
6:20 PM41 °FQuite cool.14 mph76%29.89 "Hg2 mi
5:20 PM41 °FQuite cool.12 mph81%29.86 "Hg2 mi
4:20 PM41 °FQuite cool.12 mph76%29.86 "Hg2 mi
3:20 PM45 °FQuite cool.16 mph66%29.83 "Hg2 mi
2:20 PM45 °FQuite cool.17 mph71%29.83 "Hg2 mi
1:20 PM45 °FQuite cool.17 mph76%29.80 "Hg2 mi
12:20 PM45 °FQuite cool.16 mph76%29.77 "Hg2 mi
11:20 AM43 °FQuite cool.15 mph87%29.77 "Hg2 mi
10:20 AM41 °FQuite cool.18 mph93%29.74 "Hg2 mi
9:20 AM41 °FQuite cool.15 mph93%29.68 "Hg2 mi
8:20 AM39 °FChilly.15 mph93%29.65 "Hg2 mi
7:20 AM39 °FChilly.15 mph87%29.62 "Hg2 mi
6:20 AM37 °FChilly.20 mph87%29.62 "Hg2 mi
5:20 AM37 °FChilly.14 mph87%29.62 "Hg2 mi
4:20 AM37 °FChilly.13 mph81%29.62 "Hg2 mi
3:20 AM37 °FChilly.14 mph75%29.68 "Hg2 mi
2:20 AM36 °FChilly.13 mph81%29.71 "Hg2 mi
Weather by CustomWeather, © 2015

See weather overviewHow to use our weather pages